Location: Bas Lanzent
(48.1360°N, 3.5871°W)
Time: 02:54:53
(UTC+00:00)

Cosmos 1743 Rocket - Pass Details

Date: 18 February 2020
Orbit: 605 x 632 km, 82.6° (Epoch: 05 April)

Event Time Altitude Azimuth Distance (km) Brightness Sun altitude
Rises 05:23:23 0° 348° (NNW) 2,876 6.9 -19.6°
Reaches altitude 10° 05:25:37 10° 345° (NNW) 1,966 6.0 -19.2°
Maximum altitude 05:29:55 65° 264° (W) 668 3.4 -18.5°
Drops below altitude 10° 05:34:12 10° 183° (S) 1,951 6.1 -17.8°
Sets 05:36:24 0° 180° (S) 2,852 7.0 -17.4°
